[[{"header":{"parameterUnit":"m.s-1","parameterCategory":1,"la1":30.2991,"la2":30.254,"lo1":-89.0895,"lo2":-89.0444,"dy":0.0017,"dx":0.0017,"nx":28,"ny":28,"refTime":"2025-02-28T09:00:00:Z","depth":0,"parameterNumber":2,"parameterNumberName":"U-component_of_WINDS"},"data":[0,0,0,0,0,0,0,0,0,0,0,0,0,0,0,0,0,0,0,0,0,0,0,0,0,0,0,0,0,0,0,0,0,0,0,0,0,0,0,0,0,0,0,0,0,0,0,0,0,0,0,0,0,0,0,0,0,0,0.3337,0.3337,0,0.3358,0.3358,0.3359,0.3348,0.3347,0.3347,0.3346,0.3368,0.3369,0.337,0,0,0,0,0,0,0,0,0,0,0,0,0,0.3287,0.3288,0.3337,0.3337,0.3337,0.3358,0.3358,0.3359,0.3348,0.3347,0.3346,0.3346,0.3368,0.3369,0.337,0,0,0,0,0,0,0,0,0,0,0,0,0,0.3309,0.3288,0.3337,0.3334,0.3334,0.3358,0.3358,0.3359,0.3348,0.3347,0.3346,0.3345,0.3367,0.3369,0.3371,0.3398,0,0,0.3376,0.3376,0,0,0,0,0,0,0,0,0.3307,0.331,0.3334,0.3335,0.3335,0.3349,0.3349,0.3372,0.3348,0.3343,0.3346,0.3345,0.3363,0.3365,0.337,0.3399,0.34,0.3376,0.3377,0.3378,0.3378,0,0,0,0,0,0,0,0.3306,0.3309,0.3345,0.3335,0.3335,0.3332,0.3334,0.3353,0.3357,0.3343,0.3342,0.3345,0.3362,0.3369,0.3371,0.34,0.3376,0.3377,0.3378,0.3379,0.3453,0.3454,0,0,0,0,0,0,0.3304,0.3308,0.3344,0.3346,0.3319,0.3334,0.3336,0.3345,0.3357,0.3358,0.3346,0.3344,0.3366,0.3369,0.3372,0.3405,0.3378,0.3379,0.338,0.3452,0.3453,0.3454,0,0,0,0,0,0,0.3303,0.3308,0.3344,0.3327,0.3331,0.3336,0.3346,0.3346,0.3353,0.3359,0.336,0.3352,0.3366,0.3369,0.3392,0.3406,0.338,0.3381,0.3451,0.3452,0.3454,0.3472,0,0,0,0,0,0,0.3302,0.3307,0.3318,0.3327,0.3332,0.3363,0.3347,0.3347,0.3356,0.3354,0.3365,0.3365,0.3365,0.3389,0.3393,0.3407,0.3383,0.3449,0.3451,0.3453,0.347,0.3473,0.3477,0,0,0,0,0,0.33,0.3322,0.3318,0.3323,0.3345,0.3364,0.3367,0.3366,0.3357,0.3367,0.3371,0.3365,0.3403,0.3391,0.3396,0.3411,0.3449,0.3451,0.3453,0.3468,0.3473,0.3476,0,0,0,0,0,0,0.3314,0.3323,0.3319,0.3344,0.3354,0.3362,0.3375,0.3371,0.3383,0.3381,0.338,0.3382,0.3406,0.341,0.3397,0.3438,0.3424,0.3428,0.3435,0.3439,0.3442,0.3441,0.3384,0,0,0,0,0,0.332,0.3334,0.3342,0.3363,0.3368,0.3371,0.3379,0.3378,0.3387,0.3391,0.3397,0.3406,0.342,0.343,0.3443,0.347,0.3473,0.3483,0.3486,0.3489,0.3492,0.3507,0.3512,0.3461,0.3461,0.3461,0,0,0.3333,0.3339,0.3348,0.3366,0.3373,0.3388,0.3374,0.3391,0.3402,0.3394,0.3415,0.342,0.343,0.3455,0.3466,0.346,0.3506,0.3491,0.3494,0.3495,0.351,0.3515,0.3519,0.3463,0.3462,0.3462,0,0,0.3363,0.337,0.3389,0.3396,0.3406,0.3408,0.3413,0.3422,0.3425,0.3446,0.344,0.3454,0.3478,0.3486,0.3493,0.3527,0.3522,0.3532,0.355,0.3565,0.3569,0.3573,0.3585,0.359,0.3535,0.3535,0.3535,0,0.3378,0.34,0.3399,0.3416,0.3425,0.3417,0.3437,0.3444,0.3458,0.3464,0.3456,0.3487,0.3493,0.3521,0.3529,0.3535,0.354,0.3531,0.3568,0.3572,0.3575,0.3588,0.3592,0.3536,0.3536,0.3535,0.3535,0,0.3418,0.3434,0.3448,0.3462,0.3472,0.349,0.3492,0.3502,0.35,0.3502,0.3525,0.3532,0.3547,0.3553,0.3552,0.3581,0.3576,0.3568,0.3555,0.3581,0.3593,0.3598,0.3537,0.3537,0.3537,0.3536,0,0,0.3458,0.3472,0.3477,0.3484,0.3495,0.3507,0.3525,0.354,0.3549,0.3559,0.3575,0.3595,0.3588,0.3597,0.3595,0.3609,0.3636,0.3599,0.3599,0.3607,0.3669,0.3676,0.3681,0.3632,0.3633,0.3634,0.3669,0,0.3491,0.3522,0.3522,0.3551,0.3566,0.356,0.3575,0.3584,0.3587,0.3601,0.3604,0.3619,0.3608,0.3613,0.3626,0.363,0.3649,0.3627,0.3648,0.3648,0.3646,0.3687,0.3694,0.3726,0.3673,0.3674,0.3674,0,0.3533,0.3544,0.3576,0.3585,0.3591,0.3606,0.3619,0.3632,0.3642,0.3643,0.3652,0.3649,0.3668,0.3653,0.3679,0.3665,0.3673,0.3676,0.3677,0.368,0.3664,0.3692,0.3736,0.3742,0.3681,0.3681,0.368,0,0.356,0.3584,0.3605,0.3611,0.3623,0.3633,0.3638,0.3647,0.3656,0.3668,0.3674,0.3688,0.3696,0.3707,0.3708,0.3697,0.3734,0.3719,0.3736,0.3736,0.3745,0.3745,0.3793,0.3749,0.3749,0.3749,0.3749,0,0.3597,0.3616,0.3618,0.3632,0.3653,0.3652,0.3674,0.3678,0.3687,0.3701,0.3696,0.371,0.3709,0.3724,0.3724,0.3746,0.375,0.3752,0.3752,0.3753,0.3752,0.3758,0.3756,0.375,0.375,0.375,0.375,0,0.3631,0.3633,0.3657,0.3666,0.3668,0.3684,0.3692,0.3705,0.3707,0.3726,0.373,0.3734,0.3751,0.3752,0.3771,0.3772,0.3799,0.3796,0.3795,0.3795,0.3812,0.3811,0.3867,0.3874,0.3825,0.3825,0.3826,0,0.3655,0.367,0.368,0.369,0.3696,0.3711,0.372,0.372,0.3729,0.3742,0.3754,0.3769,0.3782,0.3809,0.3813,0.3828,0.3826,0.3845,0.3828,0.3829,0.3827,0.3827,0.3829,0.3848,0.3849,0.3849,0.3849,0,0.3697,0.3697,0.3711,0.3725,0.3736,0.3747,0.3757,0.3765,0.3766,0.3778,0.3794,0.3804,0.3824,0.384,0.3854,0.3859,0.3855,0.3854,0.3859,0.3861,0.386,0.3861,0.3805,0.3853,0.3853,0.3853,0.3852,0.3852,0.3727,0.3741,0.375,0.3766,0.3773,0.3783,0.3796,0.38,0.3814,0.383,0.3829,0.3847,0.3857,0.3876,0.3883,0.3898,0.3891,0.3898,0.39,0.3902,0.3904,0.3857,0.39,0.39,0.39,0.39,0.39,0,0.377,0.3776,0.379,0.3804,0.3817,0.3811,0.3822,0.3833,0.3849,0.3859,0.3871,0.3891,0.3906,0.3912,0.3928,0.3938,0.3937,0.3942,0.3942,0.3944,0.3908,0.3903,0.3944,0.3944,0.3944,0.3944,0.3944,0.3944,0.3793,0.3816,0.3817,0.3843,0.3849,0.3867,0.3874,0.3883,0.3891,0.3913,0.3926,0.393,0.3938,0.3954,0.3968,0.3969,0.3976,0.3982,0.3983,0.395,0.3946,0.3942,0.3937,0.3984,0.3984,0.4017,0.4017,0.4017]},{"header":{"parameterUnit":"m.s-1","parameterCategory":1,"la1":30.2991,"la2":30.254,"lo1":-89.0895,"lo2":-89.0444,"dy":0.0017,"dx":0.0017,"nx":28,"ny":28,"refTime":"2025-02-28T09:00:00:Z","depth":0,"parameterNumber":3,"parameterNumberName":"V-component_of_WINDS"},"data":[0,0,0,0,0,0,0,0,0,0,0,0,0,0,0,0,0,0,0,0,0,0,0,0,0,0,0,0,0,0,0,0,0,0,0,0,0,0,0,0,0,0,0,0,0,0,0,0,0,0,0,0,0,0,0,0,0,0,-0.542,-0.542,0,-0.5441,-0.5441,-0.5442,-0.5429,-0.5429,-0.5428,-0.5427,-0.545,-0.5451,-0.5452,0,0,0,0,0,0,0,0,0,0,0,0,0,-0.5369,-0.537,-0.542,-0.542,-0.542,-0.5441,-0.5441,-0.5442,-0.5429,-0.5429,-0.5428,-0.5427,-0.5449,-0.5451,-0.5452,0,0,0,0,0,0,0,0,0,0,0,0,0,-0.539,-0.537,-0.542,-0.5417,-0.5416,-0.5441,-0.5441,-0.5442,-0.5429,-0.5429,-0.5428,-0.5427,-0.5449,-0.545,-0.5452,-0.5481,0,0,-0.5457,-0.5458,0,0,0,0,0,0,0,0,-0.5389,-0.5392,-0.5417,-0.5417,-0.5417,-0.5432,-0.5431,-0.5455,-0.543,-0.5425,-0.5427,-0.5426,-0.5444,-0.5446,-0.5452,-0.5482,-0.5483,-0.5458,-0.5459,-0.5459,-0.546,0,0,0,0,0,0,0,-0.5388,-0.5391,-0.5428,-0.5417,-0.5417,-0.5414,-0.5416,-0.5436,-0.5439,-0.5425,-0.5424,-0.5427,-0.5444,-0.5451,-0.5453,-0.5483,-0.5458,-0.5459,-0.546,-0.5461,-0.5539,-0.554,0,0,0,0,0,0,-0.5386,-0.539,-0.5427,-0.5429,-0.54,-0.5416,-0.5418,-0.5428,-0.5439,-0.544,-0.5428,-0.5426,-0.5448,-0.5451,-0.5454,-0.5489,-0.5459,-0.5461,-0.5462,-0.5538,-0.5539,-0.554,0,0,0,0,0,0,-0.5385,-0.539,-0.5427,-0.5409,-0.5414,-0.5418,-0.5428,-0.5429,-0.5435,-0.5441,-0.5442,-0.5434,-0.5448,-0.5451,-0.5474,-0.5489,-0.5462,-0.5463,-0.5536,-0.5538,-0.5539,-0.5559,0,0,0,0,0,0,-0.5384,-0.5389,-0.54,-0.541,-0.5415,-0.5447,-0.5429,-0.543,-0.5438,-0.5437,-0.5447,-0.5448,-0.5447,-0.5472,-0.5476,-0.5491,-0.5465,-0.5535,-0.5537,-0.5539,-0.5557,-0.5561,-0.5564,0,0,0,0,0,-0.5382,-0.5405,-0.5401,-0.5405,-0.5428,-0.5448,-0.5451,-0.545,-0.5439,-0.5451,-0.5454,-0.5447,-0.5487,-0.5474,-0.5479,-0.5495,-0.5534,-0.5536,-0.5539,-0.5555,-0.556,-0.5564,0,0,0,0,0,0,-0.5397,-0.5406,-0.5402,-0.5428,-0.5437,-0.5446,-0.546,-0.5455,-0.5467,-0.5465,-0.5463,-0.5466,-0.549,-0.5495,-0.5481,-0.5524,-0.5509,-0.5512,-0.552,-0.5525,-0.5528,-0.5527,-0.5466,0,0,0,0,0,-0.5403,-0.5418,-0.5425,-0.5448,-0.5453,-0.5456,-0.5464,-0.5462,-0.5472,-0.5476,-0.5481,-0.5491,-0.5506,-0.5515,-0.5529,-0.5557,-0.556,-0.5571,-0.5574,-0.5577,-0.558,-0.5597,-0.5602,-0.5547,-0.5547,-0.5547,0,0,-0.5417,-0.5423,-0.5433,-0.5451,-0.5458,-0.5474,-0.5459,-0.5476,-0.5488,-0.5478,-0.5501,-0.5505,-0.5516,-0.5542,-0.5554,-0.5547,-0.5596,-0.558,-0.5583,-0.5584,-0.5599,-0.5605,-0.5609,-0.5549,-0.5549,-0.5548,0,0,-0.5449,-0.5456,-0.5476,-0.5483,-0.5494,-0.5495,-0.55,-0.551,-0.5512,-0.5535,-0.5528,-0.5542,-0.5567,-0.5575,-0.5583,-0.5619,-0.5613,-0.5624,-0.5643,-0.5659,-0.5663,-0.5667,-0.5681,-0.5685,-0.5627,-0.5627,-0.5627,0,-0.5465,-0.5488,-0.5486,-0.5504,-0.5513,-0.5505,-0.5525,-0.5533,-0.5547,-0.5554,-0.5545,-0.5577,-0.5584,-0.5612,-0.5621,-0.5627,-0.5633,-0.5623,-0.5663,-0.5666,-0.567,-0.5683,-0.5688,-0.5628,-0.5628,-0.5628,-0.5627,0,-0.5507,-0.5523,-0.5538,-0.5553,-0.5563,-0.5582,-0.5583,-0.5594,-0.5592,-0.5594,-0.5618,-0.5625,-0.5641,-0.5647,-0.5645,-0.5676,-0.5671,-0.5663,-0.5648,-0.5676,-0.5689,-0.5694,-0.563,-0.5629,-0.5629,-0.5628,0,0,-0.5549,-0.5563,-0.5569,-0.5576,-0.5587,-0.56,-0.5619,-0.5634,-0.5644,-0.5654,-0.567,-0.5692,-0.5685,-0.5693,-0.5692,-0.5705,-0.5735,-0.5696,-0.5696,-0.5703,-0.577,-0.5777,-0.5782,-0.5731,-0.5732,-0.5733,-0.5769,0,-0.5583,-0.5616,-0.5616,-0.5647,-0.5662,-0.5655,-0.5672,-0.5681,-0.5684,-0.5698,-0.5701,-0.5717,-0.5706,-0.5711,-0.5724,-0.5728,-0.5748,-0.5726,-0.5747,-0.5747,-0.5745,-0.5789,-0.5796,-0.583,-0.5774,-0.5775,-0.5775,0,-0.5627,-0.5639,-0.5672,-0.5682,-0.5688,-0.5703,-0.5718,-0.5731,-0.5741,-0.5743,-0.5752,-0.5749,-0.5769,-0.5753,-0.5781,-0.5765,-0.5774,-0.5777,-0.5779,-0.5781,-0.5764,-0.5793,-0.5841,-0.5846,-0.5783,-0.5782,-0.5782,0,-0.5656,-0.5681,-0.5703,-0.5709,-0.5721,-0.5732,-0.5738,-0.5747,-0.5757,-0.5769,-0.5775,-0.579,-0.5798,-0.581,-0.5811,-0.5799,-0.5839,-0.5823,-0.5841,-0.5841,-0.585,-0.585,-0.5901,-0.5854,-0.5854,-0.5854,-0.5854,0,-0.5694,-0.5715,-0.5717,-0.5731,-0.5754,-0.5753,-0.5775,-0.578,-0.5788,-0.5804,-0.5798,-0.5813,-0.5813,-0.5827,-0.5828,-0.5851,-0.5855,-0.5857,-0.5857,-0.5858,-0.5858,-0.5864,-0.5862,-0.5855,-0.5855,-0.5855,-0.5855,0,-0.5731,-0.5733,-0.5757,-0.5767,-0.5769,-0.5786,-0.5794,-0.5808,-0.581,-0.583,-0.5834,-0.5839,-0.5856,-0.5858,-0.5878,-0.5878,-0.5907,-0.5904,-0.5903,-0.5903,-0.5921,-0.592,-0.5979,-0.5987,-0.5935,-0.5935,-0.5935,0,-0.5755,-0.5771,-0.5782,-0.5792,-0.5798,-0.5814,-0.5823,-0.5823,-0.5833,-0.5847,-0.5859,-0.5876,-0.5889,-0.5917,-0.5922,-0.5938,-0.5936,-0.5955,-0.5938,-0.5939,-0.5937,-0.5937,-0.5939,-0.5959,-0.596,-0.596,-0.596,0,-0.5799,-0.5799,-0.5814,-0.5828,-0.584,-0.5852,-0.5863,-0.5871,-0.5872,-0.5884,-0.5902,-0.5912,-0.5933,-0.595,-0.5965,-0.5971,-0.5966,-0.5966,-0.5971,-0.5972,-0.5972,-0.5973,-0.5913,-0.5965,-0.5964,-0.5964,-0.5964,-0.5963,-0.5831,-0.5845,-0.5855,-0.5871,-0.5879,-0.589,-0.5903,-0.5908,-0.5922,-0.5939,-0.5938,-0.5958,-0.5968,-0.5989,-0.5996,-0.6011,-0.6005,-0.6012,-0.6014,-0.6016,-0.6019,-0.5969,-0.6014,-0.6014,-0.6014,-0.6014,-0.6014,0,-0.5875,-0.5882,-0.5896,-0.5912,-0.5925,-0.5919,-0.5931,-0.5942,-0.5959,-0.597,-0.5983,-0.6004,-0.602,-0.6027,-0.6043,-0.6055,-0.6053,-0.6059,-0.6059,-0.606,-0.6023,-0.6017,-0.606,-0.606,-0.606,-0.606,-0.606,-0.606,-0.59,-0.5924,-0.5925,-0.5953,-0.5959,-0.5978,-0.5986,-0.5995,-0.6004,-0.6027,-0.6041,-0.6045,-0.6054,-0.6071,-0.6086,-0.6087,-0.6094,-0.6101,-0.6102,-0.6067,-0.6063,-0.6058,-0.6053,-0.6103,-0.6103,-0.6138,-0.6139,-0.6139]}]]